Weather History for Minot AFB, ND

Change the Weather History Date:

Sunday, March 3, 2013

  Actual Average Record
Temperature  
Mean Temperature 24 °F -  
Max Temperature 27 °F 19 °F 53 °F (2005)
Min Temperature 21 °F 3 °F -11 °F (2003)
Degree Days  
Heating Degree Days 41    
Moisture  
Dew Point 23 °F    
Average Humidity 92    
Maximum Humidity 100    
Minimum Humidity 86    
Precipitation  
Precipitation 0.00 in - - ()
Sea Level Pressure  
Sea Level Pressure 29.77 in    
Wind  
Wind Speed 16 mph (ESE)    
Max Wind Speed 22 mph    
Max Gust Speed -    
Visibility 7 miles    
Events      
Averages and records for this station are not official NWS values.
T = Trace of Precipitation, MM = Missing Value Source: NWS Daily Summary

Daily Weather History Graph

Daily Weather History Graph

Search for Another Location

Airport:

Trip Planner

Search our weather history database for the weather conditions in past years. The results will help you decide how hot, cold, wet, or windy it might be!

Date:

Astronomy

Mar. 03, 2013 Rise Set
Actual Time 7:22 AM CST 6:33 PM CST
Civil Twilight 6:51 AM CST 7:04 PM CST
Nautical Twilight 6:14 AM CST 7:40 PM CST
Astronomical Twilight 5:38 AM CST 8:17 PM CST
Moon 12:44 AM CST (3/3) 10:07 AM CST (3/3)
Length of Visible Light 12h 13m
Length of Day
11h 10m
Waning Gibbous, 63% of the Moon is Illuminated
Mar 3
Waning Gibbous
Mar 4
Last Quarter
Mar 11
New
Mar 19
First Quarter
Mar 27
Full

Hourly Weather History & Observations

Time (CST) Temp. Windchill Dew Point Humidity Pressure Visibility Wind Dir Wind Speed Gust Speed Precip Events Conditions
9:15 AM 21.2 °F 10.9 °F 21.2 °F 100% 29.87 in 5.0 mi East 9.2 mph - N/A   Overcast
9:59 AM 23.0 °F 11.7 °F 21.2 °F 93% 29.86 in 7.0 mi ESE 11.5 mph - N/A   Overcast
10:55 AM 23.5 °F 11.3 °F 22.5 °F 96% 29.85 in 8.0 mi ESE 13.8 mph - N/A   Overcast
11:33 AM 24.8 °F 12.4 °F 23.0 °F 93% 29.83 in 8.0 mi ESE 15.0 mph - N/A   Overcast
11:55 AM 25.0 °F 12.2 °F 23.9 °F 96% 29.83 in 9.0 mi ESE 16.1 mph - N/A   Overcast
12:35 PM 26.6 °F 13.4 °F 24.8 °F 93% 29.81 in 10.0 mi ESE 18.4 mph - N/A   Overcast
12:55 PM 26.2 °F 13.4 °F 25.5 °F 97% 29.80 in 10.0 mi ESE 17.3 mph - N/A   Overcast
1:33 PM 26.6 °F 13.8 °F 24.8 °F 93% 29.78 in 10.0 mi ESE 17.3 mph - N/A   Overcast
1:55 PM 26.6 °F 14.3 °F 25.3 °F 95% 29.76 in 10.0 mi ESE 16.1 mph - N/A   Overcast
2:55 PM 27.0 °F 13.5 °F 23.7 °F 88% 29.75 in 10.0 mi East 19.6 mph - N/A   Overcast
3:30 PM 26.6 °F 12.7 °F 23.0 °F 86% 29.77 in 10.0 mi ESE 20.7 mph - N/A   Overcast
3:44 PM 26.6 °F 12.4 °F 23.0 °F 86% 29.76 in 10.0 mi ESE 21.9 mph - N/A   Overcast
3:55 PM 26.4 °F 12.8 °F 23.0 °F 87% 29.76 in 10.0 mi ESE 19.6 mph - N/A   Overcast
4:55 PM 26.1 °F 14.0 °F 23.0 °F 88% 29.76 in 10.0 mi ESE 15.0 mph - N/A   Overcast
5:52 PM 24.8 °F 11.5 °F 23.0 °F 93% 29.75 in 2.5 mi East 17.3 mph - N/A   Overcast
5:55 PM 25.3 °F 12.6 °F 23.2 °F 91% 29.75 in 2.5 mi East 16.1 mph - 0.00 in   Overcast
6:06 PM 24.8 °F 10.3 °F 23.0 °F 93% 29.75 in 2.0 mi ESE 20.7 mph - N/A   Overcast
6:22 PM 24.8 °F 11.1 °F 23.0 °F 93% 29.75 in 3.0 mi ESE 18.4 mph - N/A   Light Freezing Rain
6:48 PM 24.8 °F 12.4 °F 23.0 °F 93% 29.76 in 4.0 mi ESE 15.0 mph - N/A   Overcast
6:55 PM 25.2 °F 13.3 °F 23.4 °F 93% 29.76 in 5.0 mi ESE 13.8 mph - 0.00 in   Overcast
6:58 PM 24.8 °F 12.9 °F 23.0 °F 93% 29.76 in 5.0 mi ESE 13.8 mph - N/A   Overcast
7:03 PM 24.8 °F 12.9 °F 23.0 °F 93% 29.76 in 5.0 mi East 13.8 mph - N/A   Overcast
7:10 PM 24.8 °F 12.9 °F 23.0 °F 93% 29.77 in 5.0 mi ESE 13.8 mph - N/A   Overcast
7:17 PM 24.8 °F 12.4 °F 23.0 °F 93% 29.77 in 5.0 mi ESE 15.0 mph - N/A   Overcast
7:21 PM 24.8 °F 11.5 °F 23.0 °F 93% 29.77 in 5.0 mi ESE 17.3 mph - N/A   Overcast
7:22 PM 24.8 °F 11.9 °F 23.0 °F 93% 29.76 in 5.0 mi ESE 16.1 mph - N/A   Overcast
7:43 PM 24.8 °F 12.4 °F 23.0 °F 93% 29.76 in 4.0 mi East 15.0 mph - N/A   Overcast
7:55 PM 25.0 °F 12.6 °F 23.4 °F 94% 29.76 in 4.0 mi ESE 15.0 mph - 0.00 in   Overcast
7:56 PM 24.8 °F 12.4 °F 23.0 °F 93% 29.76 in 4.0 mi ESE 15.0 mph - N/A   Overcast
8:08 PM 24.8 °F 11.1 °F 23.0 °F 93% 29.76 in 5.0 mi ESE 18.4 mph - N/A   Overcast
8:28 PM 24.8 °F 11.1 °F 23.0 °F 93% 29.76 in 5.0 mi East 18.4 mph - N/A   Overcast
8:55 PM 24.4 °F 10.2 °F 22.5 °F 92% 29.75 in 5.0 mi East 19.6 mph - N/A   Overcast
9:03 PM 24.8 °F 10.7 °F 23.0 °F 93% 29.76 in 6.0 mi ESE 19.6 mph - N/A   Overcast
9:05 PM 24.8 °F 11.5 °F 23.0 °F 93% 29.76 in 6.0 mi ESE 17.3 mph - N/A   Overcast
9:08 PM 24.8 °F 10.3 °F 21.2 °F 86% 29.76 in 7.0 mi East 20.7 mph - N/A   Overcast
9:15 PM 24.8 °F 12.4 °F 21.2 °F 86% 29.75 in 8.0 mi East 15.0 mph - N/A   Overcast
9:27 PM 24.8 °F 11.1 °F 23.0 °F 93% 29.75 in 7.0 mi East 18.4 mph - N/A   Overcast
9:30 PM 24.8 °F 10.7 °F 21.2 °F 86% 29.75 in 8.0 mi East 19.6 mph - N/A   Overcast
9:32 PM 24.8 °F 10.7 °F 21.2 °F 86% 29.76 in 8.0 mi East 19.6 mph - N/A   Overcast
9:39 PM 24.8 °F 10.7 °F 21.2 °F 86% 29.76 in 8.0 mi East 19.6 mph - N/A   Overcast
9:47 PM 24.8 °F 11.1 °F 21.2 °F 86% 29.75 in 8.0 mi East 18.4 mph - N/A   Overcast
9:55 PM 23.9 °F 10.3 °F 21.9 °F 92% 29.75 in 7.0 mi East 17.3 mph - N/A   Overcast
10:52 PM 24.8 °F 11.5 °F 23.0 °F 93% 29.74 in 5.0 mi East 17.3 mph - N/A   Overcast
10:55 PM 23.9 °F 10.3 °F 22.1 °F 93% 29.74 in 5.0 mi East 17.3 mph - 0.00 in   Overcast
11:07 PM 24.8 °F 11.5 °F 23.0 °F 93% 29.74 in 5.0 mi East 17.3 mph - N/A   Overcast
11:13 PM 24.8 °F 11.9 °F 23.0 °F 93% 29.74 in 5.0 mi East 16.1 mph - N/A   Overcast
11:41 PM 24.8 °F 10.7 °F 23.0 °F 93% 29.74 in 8.0 mi East 19.6 mph - N/A   Overcast
11:53 PM 24.8 °F 11.5 °F 23.0 °F 93% 29.73 in 9.0 mi East 17.3 mph - N/A   Overcast
11:55 PM 24.4 °F 11.9 °F 22.6 °F 93% 29.73 in 9.0 mi East 15.0 mph - 0.00 in   Overcast